Flag for Hungary Weather past 2 weeks in Debrecen, Hungary

Now
65 °F

Mild.


Feels Like: 65 °F
Forecast: 67 / 96 °F
Wind: No wind

Location: Debrecen

Current Time: Jul 5, 2015 at 3:07:31 AM

Latest Report: Jul 5, 2015 at 2:00 AM


Visibility: N/A

Pressure: 30.10 "Hg

Humidity: 77%

Dew point: 58 °F

Location of DebrecenLocation

Historic Weather in Debrecen — Graph

°F

Debrecen temperature yesterday

Maximum temperature yesterday: 88 °F (at 4:00 PM)
Minimum temperature yesterday: 62 °F (at 5:00 AM)
Average temperature yesterday: 76 °F

Past Weeks' High & Low Weather Summary

 TemperatureHumidityPressure
High88 °F (Jul 4, 4:00 PM)94% (Jun 24, 11:00 PM)30.31 "Hg (Jun 24, 11:00 PM)
Low48 °F (Jun 22, 5:00 AM)25% (Jul 3, 4:00 PM)29.87 "Hg (Jun 23, 2:00 PM)
Average68 °F61%30.07 "Hg
* Reported Jun 20 4:00 AM — Jul 5 2:00 AM, Debrecen, Weather by CustomWeather, © 2015

Note: Actual official high and low records may vary slightly from our data, if they occured in-between our weather recording intervals... More about our weather records

Advertising

Debrecen weather history for previous 24 hours

 ConditionsComfort  
Time TempWeatherWind HumidityBarometerVisibility
2:00 AM
Sun, Jul 5
65 °FMild.No wind77%30.10 "HgN/A
1:00 AM66 °FMild.No wind73%30.11 "HgN/A
12:00 AM68 °FMild.No wind69%30.11 "HgN/A
11:00 PM
Sat, Jul 4
72 °FMild.No wind62%30.11 "HgN/A
10:00 PM75 °FMild.No wind53%30.12 "HgN/A
9:00 PM79 °FWarm.2 mph45%30.11 "HgN/A
8:00 PM84 °FPleasantly warm.3 mph33%30.11 "HgN/A
7:00 PM84 °FPleasantly warm.3 mph32%30.12 "HgN/A
6:00 PM86 °FPleasantly warm.3 mph30%30.12 "HgN/A
5:00 PM86 °FPleasantly warm.2 mph31%30.13 "HgN/A
4:00 PM88 °FPartly sunny.2 mph30%30.14 "Hg25 mi
3:00 PM88 °FPartly sunny.2 mph27%30.16 "Hg25 mi
2:00 PM87 °FPartly sunny.2 mph29%30.17 "Hg25 mi
1:00 PM87 °FScattered clouds.2 mph30%30.19 "Hg25 mi
12:00 PM84 °FScattered clouds.2 mph31%30.21 "Hg19 mi
11:00 AM83 °FScattered clouds.2 mph34%30.22 "Hg19 mi
10:00 AM81 °FScattered clouds.1 mph45%30.23 "Hg16 mi
9:00 AM77 °FScattered clouds.2 mph52%30.24 "Hg19 mi
8:00 AM71 °FPassing clouds.2 mph63%30.26 "Hg16 mi
7:00 AM68 °FPassing clouds.2 mph67%30.26 "Hg16 mi
6:00 AM62 °FCool.2 mph77%30.27 "HgN/A
5:00 AM62 °FPassing clouds.2 mph75%30.27 "Hg16 mi
4:00 AM64 °FMild.2 mph69%30.27 "HgN/A
3:00 AM65 °FMild.2 mph66%30.28 "HgN/A
Weather by CustomWeather, © 2015

See weather overviewHow to use our weather pages